YAHSAT 1B

导读 | 豆包AI

YAHSAT 1B(阿联酋卫星1B)是阿联酋卫星通信公司新一代通信卫星星座的第二颗卫星,于2012年4月23日在拜科努尔航天发射场由质子M火箭发射升空。卫星重约6100公斤,定轨于东经50.5度地球同步轨道,设计寿命15年。配备25个商用ka波段转发器和21个军用/政府安全转发器,可为欧非、中亚、南亚及中国大部分地区、东南亚提供卫星通信服务。

基本信息
目录编号:
38245
目录名称:
YAHSAT 1B
国际标识:
2012-016A
轨道中心:
EARTH
卫星名称:
YAHSAT 1B
卫星全名:
--
卫星状态:
在轨 (已飞行5121 天)
发射日期:
2012-04-23 UTC
国别 :
(AE)
星等 :
--
轨道信息
数据来源 国际轨道数据 AOE轨道数据
星历时间 2026-05-01T06:10:43+0800
9小时前
查看轨道信息
2026-05-01T05:00:00+0800
10小时前
查看轨道信息
半长轴 42165.205km 42165.009km
偏心率 0.0002613 0.0002841
轨道倾角 0.091° 0.094°
近地点辐角 322.043° 321.370°
升交点赤经 87.033° 87.773°
平近点角 190.060° 172.266°
近地点 35776.05km 35774.892km
远地点 35798.086km 35798.852km
周期 1436.121分钟 1436.111分钟
每日圈数 1.002701 1.002708
详细信息
使用方式:
暂无
2D轨道图
3D轨道图
轨道高度分析图
轨道倾角分析图
轨道综合分析图
查看轨道综合分析图